Time,TemperatureF,DewpointF,PressureIn,WindDirection,WindDirectionDegrees,WindSpeedMPH,WindSpeedGustMPH,Humidity,HourlyPrecipIn,Conditions,Clouds,dailyrainin,SoftwareType,DateUTC
2013-05-20 00:01:00,60.2,55.4,29.66,SSE,158,0.0,1.8,84,0.00,,,0.00,WUHU216HW,2013-05-20 05:01:00,
2013-05-20 00:06:00,60.2,55.7,29.66,SSE,158,0.4,0.4,85,0.00,,,0.00,WUHU216HW,2013-05-20 05:06:00,
2013-05-20 00:11:00,60.0,55.5,29.66,SW,225,0.4,0.7,85,0.00,,,0.00,WUHU216HW,2013-05-20 05:11:00,
2013-05-20 00:16:00,60.0,55.5,29.66,SSW,203,0.0,0.7,85,0.00,,,0.00,WUHU216HW,2013-05-20 05:16:00,
2013-05-20 00:21:00,60.0,55.5,29.67,SSE,158,0.7,0.7,85,0.00,,,0.00,WUHU216HW,2013-05-20 05:21:00,
2013-05-20 00:26:00,60.0,55.5,29.68,SSW,203,2.7,3.8,85,0.00,,,0.00,WUHU216HW,2013-05-20 05:26:00,
2013-05-20 00:31:00,60.0,55.8,29.66,SE,135,2.2,4.5,86,0.00,,,0.00,WUHU216HW,2013-05-20 05:31:00,
2013-05-20 00:36:00,60.0,55.8,29.67,SE,135,2.0,4.5,86,0.00,,,0.00,WUHU216HW,2013-05-20 05:36:00,
2013-05-20 00:41:00,60.2,56.0,29.66,SE,135,0.2,2.2,86,0.00,,,0.00,WUHU216HW,2013-05-20 05:41:00,
2013-05-20 00:46:00,60.2,56.0,29.67,SSW,203,0.2,2.0,86,0.00,,,0.00,WUHU216HW,2013-05-20 05:46:00,
2013-05-20 00:51:00,60.4,56.2,29.66,West,270,1.8,1.8,86,0.00,,,0.00,WUHU216HW,2013-05-20 05:51:00,
2013-05-20 00:56:00,60.4,56.2,29.66,SSW,203,0.0,2.0,86,0.00,,,0.00,WUHU216HW,2013-05-20 05:56:00,
2013-05-20 01:01:00,60.4,56.2,29.68,SSW,203,0.4,2.0,86,0.00,,,0.00,WUHU216HW,2013-05-20 06:01:00,
2013-05-20 01:06:00,60.4,56.2,29.66,East,90,1.8,1.8,86,0.00,,,0.00,WUHU216HW,2013-05-20 06:06:00,
2013-05-20 01:11:00,60.5,56.3,29.64,NE,45,1.3,2.5,86,0.00,,,0.00,WUHU216HW,2013-05-20 06:11:00,
2013-05-20 01:16:00,60.5,56.3,29.62,East,90,0.4,2.5,86,0.00,,,0.00,WUHU216HW,2013-05-20 06:16:00,
2013-05-20 01:21:00,60.5,56.6,29.63,SW,225,0.9,1.8,87,0.00,,,0.00,WUHU216HW,2013-05-20 06:21:00,
2013-05-20 01:26:00,60.5,56.3,29.63,SW,225,0.7,1.3,86,0.00,,,0.00,WUHU216HW,2013-05-20 06:26:00,
2013-05-20 01:31:00,60.5,56.3,29.63,SSE,158,2.5,2.5,86,0.00,,,0.00,WUHU216HW,2013-05-20 06:31:00,
2013-05-20 01:36:00,60.5,56.3,29.63,ESE,113,0.0,2.5,86,0.00,,,0.00,WUHU216HW,2013-05-20 06:36:00,
2013-05-20 01:41:00,60.5,56.3,29.63,ESE,113,0.0,2.5,86,0.00,,,0.00,WUHU216HW,2013-05-20 06:41:00,
2013-05-20 01:46:00,60.5,56.3,29.63,ESE,113,0.0,0.9,86,0.00,,,0.00,WUHU216HW,2013-05-20 06:46:00,
2013-05-20 01:51:00,60.5,56.3,29.63,ESE,113,0.0,0.9,86,0.00,,,0.00,WUHU216HW,2013-05-20 06:51:00,
2013-05-20 01:56:00,60.4,56.2,29.63,SSW,203,0.9,0.9,86,0.00,,,0.00,WUHU216HW,2013-05-20 06:56:00,
2013-05-20 02:01:00,60.2,56.0,29.63,SSW,203,0.0,0.9,86,0.00,,,0.00,WUHU216HW,2013-05-20 07:01:00,
2013-05-20 02:06:00,60.2,56.0,29.63,SSE,158,0.0,0.2,86,0.00,,,0.00,WUHU216HW,2013-05-20 07:06:00,
2013-05-20 02:11:00,60.0,55.8,29.64,WSW,248,1.3,1.3,86,0.00,,,0.00,WUHU216HW,2013-05-20 07:11:00,
2013-05-20 02:16:00,59.8,55.6,29.64,South,180,0.7,1.3,86,0.00,,,0.00,WUHU216HW,2013-05-20 07:16:00,
2013-05-20 02:21:00,59.6,55.4,29.64,SSW,203,1.1,1.1,86,0.00,,,0.00,WUHU216HW,2013-05-20 07:21:00,
2013-05-20 02:26:00,59.6,55.4,29.63,SSW,203,0.7,1.1,86,0.00,,,0.00,WUHU216HW,2013-05-20 07:26:00,
2013-05-20 02:31:00,59.5,55.3,29.64,South,180,0.2,1.6,86,0.00,,,0.00,WUHU216HW,2013-05-20 07:31:00,
2013-05-20 02:36:00,59.3,55.1,29.65,SSW,203,1.3,1.6,86,0.00,,,0.00,WUHU216HW,2013-05-20 07:36:00,
2013-05-20 02:41:00,59.3,55.1,29.64,South,180,2.9,2.9,86,0.00,,,0.00,WUHU216HW,2013-05-20 07:41:00,
2013-05-20 02:46:00,58.9,55.0,29.65,SSW,203,1.3,2.9,87,0.00,,,0.00,WUHU216HW,2013-05-20 07:46:00,
2013-05-20 02:51:00,58.9,55.0,29.65,SSW,203,1.8,1.8,87,0.00,,,0.00,WUHU216HW,2013-05-20 07:51:00,
2013-05-20 02:56:00,58.9,55.0,29.65,SSW,203,1.1,1.8,87,0.00,,,0.00,WUHU216HW,2013-05-20 07:56:00,
2013-05-20 03:01:00,59.1,55.2,29.65,South,180,0.7,1.3,87,0.00,,,0.00,WUHU216HW,2013-05-20 08:01:00,
2013-05-20 03:06:00,59.1,55.2,29.67,SW,225,1.1,1.1,87,0.00,,,0.00,WUHU216HW,2013-05-20 08:06:00,
2013-05-20 03:11:00,59.1,55.2,29.68,South,180,1.1,3.1,87,0.00,,,0.00,WUHU216HW,2013-05-20 08:11:00,
2013-05-20 03:16:00,59.1,55.2,29.67,SSE,158,1.8,5.4,87,0.00,,,0.00,WUHU216HW,2013-05-20 08:16:00,
2013-05-20 03:21:00,59.1,55.2,29.67,SSE,158,2.5,5.4,87,0.00,,,0.00,WUHU216HW,2013-05-20 08:21:00,
2013-05-20 03:26:00,59.1,55.2,29.66,SSE,158,1.3,4.7,87,0.00,,,0.00,WUHU216HW,2013-05-20 08:26:00,
2013-05-20 03:31:00,59.3,55.4,29.67,South,180,3.4,4.7,87,0.00,,,0.00,WUHU216HW,2013-05-20 08:31:00,
2013-05-20 03:36:00,59.3,55.4,29.66,SSE,158,4.7,6.5,87,0.00,,,0.00,WUHU216HW,2013-05-20 08:36:00,
2013-05-20 03:41:00,59.3,55.4,29.66,South,180,3.1,6.5,87,0.00,,,0.00,WUHU216HW,2013-05-20 08:41:00,
2013-05-20 03:46:00,59.3,55.4,29.67,SE,135,4.0,5.6,87,0.00,,,0.00,WUHU216HW,2013-05-20 08:46:00,
2013-05-20 03:51:00,59.1,55.2,29.68,SSW,203,2.9,5.6,87,0.00,,,0.00,WUHU216HW,2013-05-20 08:51:00,
2013-05-20 03:56:00,59.3,55.4,29.68,SSE,158,5.1,5.1,87,0.00,,,0.00,WUHU216HW,2013-05-20 08:56:00,
2013-05-20 04:01:00,59.1,55.2,29.68,South,180,2.5,5.1,87,0.00,,,0.00,WUHU216HW,2013-05-20 09:01:00,
2013-05-20 04:06:00,59.3,55.4,29.68,SSW,203,4.7,5.4,87,0.00,,,0.00,WUHU216HW,2013-05-20 09:06:00,
2013-05-20 04:11:00,59.3,55.4,29.68,South,180,6.5,6.5,87,0.00,,,0.00,WUHU216HW,2013-05-20 09:11:00,
2013-05-20 04:16:00,59.3,55.4,29.68,South,180,4.7,6.5,87,0.00,,,0.00,WUHU216HW,2013-05-20 09:16:00,
2013-05-20 04:21:00,59.3,55.4,29.67,South,180,9.8,9.8,87,0.00,,,0.00,WUHU216HW,2013-05-20 09:21:00,
2013-05-20 04:26:00,59.3,55.4,29.68,ESE,113,4.0,9.8,87,0.00,,,0.00,WUHU216HW,2013-05-20 09:26:00,
2013-05-20 04:31:00,59.5,55.6,29.67,SSW,203,7.8,9.8,87,0.00,,,0.00,WUHU216HW,2013-05-20 09:31:00,
2013-05-20 04:36:00,59.5,55.6,29.68,SSW,203,2.5,7.8,87,0.00,,,0.00,WUHU216HW,2013-05-20 09:36:00,
2013-05-20 04:41:00,59.5,55.6,29.67,South,180,5.4,7.8,87,0.00,,,0.00,WUHU216HW,2013-05-20 09:41:00,
2013-05-20 04:46:00,59.5,55.6,29.67,SE,135,6.7,7.2,87,0.00,,,0.00,WUHU216HW,2013-05-20 09:46:00,
2013-05-20 04:51:00,59.6,55.7,29.67,South,180,2.7,7.2,87,0.00,,,0.00,WUHU216HW,2013-05-20 09:51:00,
2013-05-20 04:56:00,59.6,55.4,29.68,SSW,203,2.5,6.9,86,0.00,,,0.00,WUHU216HW,2013-05-20 09:56:00,
2013-05-20 05:01:00,59.6,55.4,29.67,SW,225,3.4,6.9,86,0.00,,,0.00,WUHU216HW,2013-05-20 10:01:00,
2013-05-20 05:06:00,59.6,55.4,29.68,SSE,158,6.5,6.5,86,0.00,,,0.00,WUHU216HW,2013-05-20 10:06:00,
2013-05-20 05:11:00,59.6,55.4,29.68,SW,225,5.8,6.5,86,0.00,,,0.00,WUHU216HW,2013-05-20 10:11:00,
2013-05-20 05:16:00,59.6,55.4,29.69,SSE,158,3.8,6.5,86,0.00,,,0.00,WUHU216HW,2013-05-20 10:16:00,
2013-05-20 05:21:00,59.5,55.3,29.68,SSW,203,1.3,5.8,86,0.00,,,0.00,WUHU216HW,2013-05-20 10:21:00,
2013-05-20 05:26:00,59.5,55.3,29.68,SSE,158,2.9,3.4,86,0.00,,,0.00,WUHU216HW,2013-05-20 10:26:00,
2013-05-20 05:31:00,59.3,55.1,29.69,SSW,203,1.3,2.9,86,0.00,,,0.00,WUHU216HW,2013-05-20 10:31:00,
2013-05-20 05:36:00,59.3,55.1,29.69,SSW,203,1.8,2.0,86,0.00,,,0.00,WUHU216HW,2013-05-20 10:36:00,
2013-05-20 05:41:00,59.3,55.1,29.68,SW,225,0.4,2.0,86,0.00,,,0.00,WUHU216HW,2013-05-20 10:41:00,
2013-05-20 05:46:00,59.3,55.1,29.69,SSE,158,2.5,2.5,86,0.00,,,0.00,WUHU216HW,2013-05-20 10:46:00,
2013-05-20 05:51:00,59.1,55.2,29.69,South,180,2.7,2.7,87,0.00,,,0.00,WUHU216HW,2013-05-20 10:51:00,
2013-05-20 05:56:00,59.1,55.2,29.68,SW,225,1.1,2.7,87,0.00,,,0.00,WUHU216HW,2013-05-20 10:56:00,
2013-05-20 06:01:00,58.9,55.0,29.68,SSE,158,2.5,2.9,87,0.00,,,0.00,WUHU216HW,2013-05-20 11:01:00,
2013-05-20 06:06:00,58.9,55.0,29.69,SSE,158,2.5,2.9,87,0.00,,,0.00,WUHU216HW,2013-05-20 11:06:00,
2013-05-20 06:11:00,58.9,55.0,29.70,SSE,158,1.8,2.5,87,0.00,,,0.00,WUHU216HW,2013-05-20 11:11:00,
2013-05-20 06:16:00,58.7,54.8,29.70,SSE,158,3.4,3.4,87,0.00,,,0.00,WUHU216HW,2013-05-20 11:16:00,
2013-05-20 06:21:00,58.7,54.8,29.70,South,180,1.8,3.4,87,0.00,,,0.00,WUHU216HW,2013-05-20 11:21:00,
2013-05-20 06:26:00,58.6,54.7,29.70,SSE,158,3.4,3.4,87,0.00,,,0.00,WUHU216HW,2013-05-20 11:26:00,
2013-05-20 06:31:00,58.6,54.7,29.70,South,180,3.4,5.4,87,0.00,,,0.00,WUHU216HW,2013-05-20 11:31:00,
2013-05-20 06:36:00,58.6,54.7,29.70,South,180,5.1,5.4,87,0.00,,,0.00,WUHU216HW,2013-05-20 11:36:00,
2013-05-20 06:41:00,58.4,54.8,29.71,SSE,158,4.7,5.8,88,0.00,,,0.00,WUHU216HW,2013-05-20 11:41:00,
2013-05-20 06:46:00,58.4,54.8,29.71,SE,135,2.5,5.8,88,0.00,,,0.00,WUHU216HW,2013-05-20 11:46:00,
2013-05-20 06:51:00,58.4,54.8,29.70,South,180,1.8,6.3,88,0.00,,,0.00,WUHU216HW,2013-05-20 11:51:00,
2013-05-20 06:56:00,58.4,54.8,29.70,WSW,248,6.3,6.3,88,0.00,,,0.00,WUHU216HW,2013-05-20 11:56:00,
2013-05-20 07:01:00,58.6,55.0,29.70,SSW,203,1.8,6.3,88,0.00,,,0.00,WUHU216HW,2013-05-20 12:01:00,
2013-05-20 07:06:00,58.6,55.3,29.71,SSW,203,2.5,4.3,89,0.00,,,0.00,WUHU216HW,2013-05-20 12:06:00,
2013-05-20 07:11:00,58.7,55.4,29.72,SSW,203,4.5,4.5,89,0.00,,,0.00,WUHU216HW,2013-05-20 12:11:00,
2013-05-20 07:16:00,58.9,55.6,29.71,SW,225,4.7,4.7,89,0.00,,,0.00,WUHU216HW,2013-05-20 12:16:00,
2013-05-20 07:21:00,59.1,55.8,29.71,SSW,203,2.7,5.4,89,0.00,,,0.00,WUHU216HW,2013-05-20 12:21:00,
2013-05-20 07:26:00,59.3,55.7,29.71,South,180,3.4,5.6,88,0.00,,,0.00,WUHU216HW,2013-05-20 12:26:00,
2013-05-20 07:31:00,59.3,55.7,29.71,South,180,4.7,5.6,88,0.00,,,0.00,WUHU216HW,2013-05-20 12:31:00,
2013-05-20 07:36:00,59.3,55.7,29.72,South,180,2.0,5.4,88,0.00,,,0.00,WUHU216HW,2013-05-20 12:36:00,
2013-05-20 07:41:00,59.5,56.2,29.72,South,180,1.6,3.1,89,0.00,,,0.00,WUHU216HW,2013-05-20 12:41:00,
2013-05-20 07:46:00,59.6,56.3,29.72,SSW,203,2.0,4.9,89,0.00,,,0.00,WUHU216HW,2013-05-20 12:46:00,
2013-05-20 07:51:00,60.0,56.7,29.72,WSW,248,3.4,4.9,89,0.00,,,0.00,WUHU216HW,2013-05-20 12:51:00,
2013-05-20 07:56:00,60.4,56.8,29.72,WSW,248,1.1,5.1,88,0.00,,,0.00,WUHU216HW,2013-05-20 12:56:00,
2013-05-20 08:01:00,60.5,56.9,29.71,SSE,158,3.1,6.3,88,0.00,,,0.00,WUHU216HW,2013-05-20 13:01:00,
2013-05-20 08:06:00,60.7,57.1,29.72,SSE,158,4.9,6.3,88,0.00,,,0.00,WUHU216HW,2013-05-20 13:06:00,
2013-05-20 08:11:00,61.3,57.7,29.72,SSE,158,1.1,4.9,88,0.00,,,0.00,WUHU216HW,2013-05-20 13:11:00,
2013-05-20 08:16:00,61.4,57.8,29.72,SE,135,0.4,2.5,88,0.00,,,0.00,WUHU216HW,2013-05-20 13:16:00,
2013-05-20 08:21:00,61.8,58.2,29.72,West,270,3.4,3.4,88,0.00,,,0.00,WUHU216HW,2013-05-20 13:21:00,
2013-05-20 08:26:00,62.0,58.1,29.72,WSW,248,2.0,3.4,87,0.00,,,0.00,WUHU216HW,2013-05-20 13:26:00,
2013-05-20 08:31:00,62.5,58.9,29.73,SSW,203,10.1,10.5,88,0.00,,,0.00,WUHU216HW,2013-05-20 13:31:00,
2013-05-20 08:36:00,62.7,58.8,29.72,SSE,158,5.4,10.5,87,0.00,,,0.00,WUHU216HW,2013-05-20 13:36:00,
2013-05-20 08:41:00,63.2,59.3,29.72,SSW,203,6.3,6.3,87,0.00,,,0.00,WUHU216HW,2013-05-20 13:41:00,
2013-05-20 08:46:00,63.2,58.9,29.72,SW,225,2.5,6.3,86,0.00,,,0.00,WUHU216HW,2013-05-20 13:46:00,
2013-05-20 08:51:00,63.2,58.9,29.72,SW,225,5.1,6.3,86,0.00,,,0.00,WUHU216HW,2013-05-20 13:51:00,
2013-05-20 08:56:00,63.2,58.6,29.73,SW,225,0.7,5.1,85,0.00,,,0.00,WUHU216HW,2013-05-20 13:56:00,
2013-05-20 09:01:00,63.2,58.6,29.73,SW,225,1.8,5.1,85,0.00,,,0.00,WUHU216HW,2013-05-20 14:01:00,
2013-05-20 09:06:00,63.2,58.6,29.72,South,180,1.1,4.9,85,0.00,,,0.00,WUHU216HW,2013-05-20 14:06:00,
2013-05-20 09:11:00,63.2,58.6,29.72,ESE,113,0.7,1.1,85,0.00,,,0.00,WUHU216HW,2013-05-20 14:11:00,
2013-05-20 09:16:00,63.2,58.6,29.73,SSE,158,0.9,1.1,85,0.00,,,0.00,WUHU216HW,2013-05-20 14:16:00,
2013-05-20 09:21:00,63.1,58.5,29.72,SW,225,0.4,1.3,85,0.00,,,0.00,WUHU216HW,2013-05-20 14:21:00,
2013-05-20 09:26:00,62.9,58.3,29.72,SW,225,0.0,1.3,85,0.00,,,0.00,WUHU216HW,2013-05-20 14:26:00,
2013-05-20 09:31:00,62.9,58.3,29.73,SW,225,0.0,0.0,85,0.00,,,0.00,WUHU216HW,2013-05-20 14:31:00,
2013-05-20 09:36:00,62.7,58.1,29.73,SSE,158,0.2,1.1,85,0.00,,,0.00,WUHU216HW,2013-05-20 14:36:00,
2013-05-20 09:41:00,62.7,58.5,29.73,SW,225,0.9,1.1,86,0.00,,,0.00,WUHU216HW,2013-05-20 14:41:00,
2013-05-20 09:46:00,62.5,58.3,29.73,SW,225,0.0,1.1,86,0.00,,,0.00,WUHU216HW,2013-05-20 14:46:00,
2013-05-20 09:51:00,62.7,58.5,29.72,SW,225,0.0,0.9,86,0.00,,,0.00,WUHU216HW,2013-05-20 14:51:00,
2013-05-20 09:56:00,62.9,58.7,29.74,SSW,203,0.9,0.9,86,0.00,,,0.00,WUHU216HW,2013-05-20 14:56:00,
2013-05-20 10:01:00,62.9,58.7,29.73,SE,135,2.5,2.5,86,0.00,,,0.00,WUHU216HW,2013-05-20 15:01:00,
2013-05-20 10:06:00,63.2,58.9,29.73,SSW,203,1.8,2.5,86,0.00,,,0.00,WUHU216HW,2013-05-20 15:06:00,
2013-05-20 10:11:00,63.4,59.1,29.73,SW,225,3.4,3.4,86,0.00,,,0.00,WUHU216HW,2013-05-20 15:11:00,
2013-05-20 10:16:00,63.6,59.3,29.73,SSW,203,1.3,3.4,86,0.00,,,0.00,WUHU216HW,2013-05-20 15:16:00,
2013-05-20 10:21:00,64.0,59.7,29.73,SW,225,2.5,4.3,86,0.00,,,0.00,WUHU216HW,2013-05-20 15:21:00,
2013-05-20 10:26:00,64.3,59.7,29.73,South,180,1.6,4.3,85,0.00,,,0.00,WUHU216HW,2013-05-20 15:26:00,
2013-05-20 10:31:00,64.7,60.1,29.72,SE,135,2.2,2.2,85,0.00,,,0.00,WUHU216HW,2013-05-20 15:31:00,
2013-05-20 10:36:00,65.2,60.9,29.72,South,180,6.7,6.7,86,0.00,,,0.00,WUHU216HW,2013-05-20 15:36:00,
2013-05-20 10:41:00,65.9,61.3,29.73,SSW,203,5.4,6.7,85,0.00,,,0.00,WUHU216HW,2013-05-20 15:41:00,
2013-05-20 10:46:00,66.5,61.5,29.73,SSE,158,4.3,5.4,84,0.00,,,0.00,WUHU216HW,2013-05-20 15:46:00,
2013-05-20 10:51:00,67.0,61.7,29.73,WSW,248,6.3,6.3,83,0.00,,,0.00,WUHU216HW,2013-05-20 15:51:00,
2013-05-20 10:56:00,67.6,62.3,29.73,South,180,6.9,6.9,83,0.00,,,0.00,WUHU216HW,2013-05-20 15:56:00,
2013-05-20 11:01:00,68.3,62.6,29.73,SW,225,8.7,8.7,82,0.00,,,0.00,WUHU216HW,2013-05-20 16:01:00,
2013-05-20 11:06:00,68.6,62.6,29.74,South,180,5.4,8.7,81,0.00,,,0.00,WUHU216HW,2013-05-20 16:06:00,
2013-05-20 11:11:00,69.7,63.3,29.74,SSW,203,7.2,7.2,80,0.00,,,0.00,WUHU216HW,2013-05-20 16:11:00,
2013-05-20 11:16:00,70.1,63.4,29.74,South,180,8.5,8.5,79,0.00,,,0.00,WUHU216HW,2013-05-20 16:16:00,
2013-05-20 11:21:00,70.4,63.7,29.74,SSW,203,11.0,11.0,79,0.00,,,0.00,WUHU216HW,2013-05-20 16:21:00,
2013-05-20 11:26:00,71.2,64.5,29.74,South,180,4.0,11.0,79,0.00,,,0.00,WUHU216HW,2013-05-20 16:26:00,
2013-05-20 11:31:00,71.3,63.8,29.74,SW,225,8.5,11.0,77,0.00,,,0.00,WUHU216HW,2013-05-20 16:31:00,
2013-05-20 11:36:00,72.1,63.1,29.74,SSE,158,8.9,8.9,73,0.00,,,0.00,WUHU216HW,2013-05-20 16:36:00,
2013-05-20 11:41:00,72.2,63.6,29.74,WSW,248,5.4,12.1,74,0.00,,,0.00,WUHU216HW,2013-05-20 16:41:00,
2013-05-20 11:46:00,72.6,63.2,29.73,SW,225,5.1,12.1,72,0.00,,,0.00,WUHU216HW,2013-05-20 16:46:00,
2013-05-20 11:51:00,73.0,64.4,29.74,SSW,203,3.4,5.4,74,0.00,,,0.00,WUHU216HW,2013-05-20 16:51:00,
2013-05-20 11:56:00,73.7,64.7,29.73,SSE,158,7.4,7.6,73,0.00,,,0.00,WUHU216HW,2013-05-20 16:56:00,
2013-05-20 12:01:00,74.0,65.0,29.74,South,180,5.1,7.6,73,0.00,,,0.00,WUHU216HW,2013-05-20 17:01:00,
2013-05-20 12:06:00,74.2,64.0,29.74,SW,225,7.8,7.8,70,0.00,,,0.00,WUHU216HW,2013-05-20 17:06:00,
2013-05-20 12:11:00,74.4,64.6,29.74,SSE,158,7.6,7.8,71,0.00,,,0.00,WUHU216HW,2013-05-20 17:11:00,
2013-05-20 12:16:00,74.4,63.8,29.74,South,180,7.6,7.8,69,0.00,,,0.00,WUHU216HW,2013-05-20 17:16:00,
2013-05-20 12:21:00,74.0,63.4,29.74,SSE,158,9.2,9.2,69,0.00,,,0.00,WUHU216HW,2013-05-20 17:21:00,
2013-05-20 12:26:00,74.0,63.4,29.74,SSE,158,3.1,9.2,69,0.00,,,0.00,WUHU216HW,2013-05-20 17:26:00,
2013-05-20 12:31:00,73.9,63.7,29.74,SW,225,2.5,9.2,70,0.00,,,0.00,WUHU216HW,2013-05-20 17:31:00,
2013-05-20 12:36:00,73.7,63.5,29.74,South,180,6.7,6.7,70,0.00,,,0.00,WUHU216HW,2013-05-20 17:36:00,
2013-05-20 12:41:00,73.5,63.3,29.74,SSE,158,1.8,6.7,70,0.00,,,0.00,WUHU216HW,2013-05-20 17:41:00,
2013-05-20 12:46:00,73.5,63.3,29.74,SSE,158,4.7,6.7,70,0.00,,,0.00,WUHU216HW,2013-05-20 17:46:00,
2013-05-20 12:51:00,73.3,63.1,29.74,South,180,4.7,6.3,70,0.00,,,0.00,WUHU216HW,2013-05-20 17:51:00,
2013-05-20 12:56:00,73.0,62.8,29.74,SSE,158,3.1,4.7,70,0.00,,,0.00,WUHU216HW,2013-05-20 17:56:00,
2013-05-20 13:01:00,72.6,62.4,29.74,South,180,5.4,5.4,70,0.00,,,0.00,WUHU216HW,2013-05-20 18:01:00,
2013-05-20 13:06:00,72.6,62.8,29.74,SSW,203,5.6,5.6,71,0.00,,,0.00,WUHU216HW,2013-05-20 18:06:00,
2013-05-20 13:11:00,72.4,62.6,29.74,South,180,8.9,8.9,71,0.00,,,0.00,WUHU216HW,2013-05-20 18:11:00,
2013-05-20 13:16:00,72.4,62.2,29.74,SSW,203,6.9,8.9,70,0.00,,,0.00,WUHU216HW,2013-05-20 18:16:00,
2013-05-20 13:21:00,72.6,62.4,29.73,SSE,158,4.9,8.9,70,0.00,,,0.00,WUHU216HW,2013-05-20 18:21:00,
2013-05-20 13:26:00,72.4,62.6,29.74,SE,135,2.0,6.9,71,0.00,,,0.00,WUHU216HW,2013-05-20 18:26:00,
2013-05-20 13:31:00,72.4,62.6,29.74,SSW,203,3.8,6.7,71,0.00,,,0.00,WUHU216HW,2013-05-20 18:31:00,
2013-05-20 13:36:00,72.2,62.5,29.74,SSW,203,3.4,6.7,71,0.00,,,0.00,WUHU216HW,2013-05-20 18:36:00,
2013-05-20 13:41:00,72.6,62.8,29.74,South,180,1.8,4.7,71,0.00,,,0.00,WUHU216HW,2013-05-20 18:41:00,
2013-05-20 13:46:00,73.0,63.2,29.74,SSE,158,6.3,6.3,71,0.00,,,0.00,WUHU216HW,2013-05-20 18:46:00,
2013-05-20 13:51:00,73.1,63.3,29.73,SE,135,2.0,6.3,71,0.00,,,0.00,WUHU216HW,2013-05-20 18:51:00,
2013-05-20 13:56:00,73.1,63.3,29.73,South,180,7.4,7.4,71,0.00,,,0.00,WUHU216HW,2013-05-20 18:56:00,
2013-05-20 14:01:00,73.0,63.2,29.73,SSW,203,2.7,8.5,71,0.00,,,0.00,WUHU216HW,2013-05-20 19:01:00,
2013-05-20 14:06:00,73.1,63.3,29.73,SSW,203,4.3,8.5,71,0.00,,,0.00,WUHU216HW,2013-05-20 19:06:00,
2013-05-20 14:11:00,73.5,63.7,29.72,SW,225,2.5,4.3,71,0.00,,,0.00,WUHU216HW,2013-05-20 19:11:00,
2013-05-20 14:16:00,74.8,65.0,29.71,ESE,113,5.4,5.4,71,0.00,,,0.00,WUHU216HW,2013-05-20 19:16:00,
2013-05-20 14:21:00,74.8,65.0,29.71,SSE,158,6.5,6.5,71,0.00,,,0.00,WUHU216HW,2013-05-20 19:21:00,
2013-05-20 14:26:00,74.9,64.2,29.71,SSE,158,3.8,7.4,69,0.00,,,0.00,WUHU216HW,2013-05-20 19:26:00,
2013-05-20 14:31:00,75.1,64.8,29.71,SW,225,1.6,7.4,70,0.00,,,0.00,WUHU216HW,2013-05-20 19:31:00,
2013-05-20 14:36:00,76.0,65.3,29.71,SW,225,5.4,5.4,69,0.00,,,0.00,WUHU216HW,2013-05-20 19:36:00,
2013-05-20 14:41:00,76.2,65.1,29.71,SSW,203,1.8,5.4,68,0.00,,,0.00,WUHU216HW,2013-05-20 19:41:00,
2013-05-20 14:46:00,76.6,65.0,29.71,South,180,3.6,5.4,67,0.00,,,0.00,WUHU216HW,2013-05-20 19:46:00,
2013-05-20 14:51:00,76.9,65.8,29.70,SW,225,2.5,3.6,68,0.00,,,0.00,WUHU216HW,2013-05-20 19:51:00,
2013-05-20 14:56:00,77.5,65.5,29.70,SSE,158,4.0,4.0,66,0.00,,,0.00,WUHU216HW,2013-05-20 19:56:00,
2013-05-20 15:01:00,77.5,65.9,29.69,SSE,158,3.4,4.0,67,0.00,,,0.00,WUHU216HW,2013-05-20 20:01:00,
2013-05-20 15:06:00,78.5,66.9,29.69,SSE,158,6.7,6.7,67,0.00,,,0.00,WUHU216HW,2013-05-20 20:06:00,
2013-05-20 15:11:00,78.7,66.6,29.68,South,180,4.7,6.7,66,0.00,,,0.00,WUHU216HW,2013-05-20 20:11:00,
2013-05-20 15:16:00,78.7,66.6,29.69,SSW,203,4.5,6.7,66,0.00,,,0.00,WUHU216HW,2013-05-20 20:16:00,
2013-05-20 15:21:00,78.9,66.8,29.68,SW,225,4.7,4.7,66,0.00,,,0.00,WUHU216HW,2013-05-20 20:21:00,
2013-05-20 15:26:00,78.7,66.2,29.68,SE,135,6.5,6.5,65,0.00,,,0.00,WUHU216HW,2013-05-20 20:26:00,
2013-05-20 15:31:00,78.7,66.6,29.68,SE,135,4.7,7.6,66,0.00,,,0.00,WUHU216HW,2013-05-20 20:31:00,
2013-05-20 15:36:00,78.7,66.6,29.67,South,180,5.1,7.6,66,0.00,,,0.00,WUHU216HW,2013-05-20 20:36:00,
2013-05-20 15:41:00,79.6,67.5,29.66,SSE,158,3.8,5.8,66,0.00,,,0.00,WUHU216HW,2013-05-20 20:41:00,
2013-05-20 15:46:00,80.0,68.3,29.66,SSE,158,2.9,5.1,67,0.00,,,0.00,WUHU216HW,2013-05-20 20:46:00,
2013-05-20 15:51:00,80.2,68.1,29.66,SW,225,4.5,4.5,66,0.00,,,0.00,WUHU216HW,2013-05-20 20:51:00,
2013-05-20 15:56:00,80.7,68.5,29.67,SSE,158,5.4,7.4,66,0.00,,,0.00,WUHU216HW,2013-05-20 20:56:00,
2013-05-20 16:01:00,81.1,68.5,29.66,SSE,158,3.6,7.4,65,0.00,,,0.00,WUHU216HW,2013-05-20 21:01:00,
2013-05-20 16:06:00,81.6,68.9,29.65,South,180,4.9,7.2,65,0.00,,,0.00,WUHU216HW,2013-05-20 21:06:00,
2013-05-20 16:11:00,81.8,68.7,29.65,ENE,68,2.7,7.2,64,0.00,,,0.00,WUHU216HW,2013-05-20 21:11:00,
2013-05-20 16:16:00,82.1,69.0,29.65,SSE,158,4.5,5.8,64,0.00,,,0.00,WUHU216HW,2013-05-20 21:16:00,
2013-05-20 16:21:00,82.5,69.4,29.65,SE,135,3.6,4.5,64,0.00,,,0.00,WUHU216HW,2013-05-20 21:21:00,
2013-05-20 16:26:00,82.9,69.3,29.65,SE,135,6.3,6.3,63,0.00,,,0.00,WUHU216HW,2013-05-20 21:26:00,
2013-05-20 16:31:00,83.2,69.6,29.64,South,180,1.8,6.3,63,0.00,,,0.00,WUHU216HW,2013-05-20 21:31:00,
2013-05-20 16:36:00,83.8,69.7,29.65,SSE,158,3.4,6.3,62,0.00,,,0.00,WUHU216HW,2013-05-20 21:36:00,
2013-05-20 16:41:00,84.1,69.0,29.65,SSE,158,2.7,3.4,60,0.00,,,0.00,WUHU216HW,2013-05-20 21:41:00,
2013-05-20 16:46:00,84.5,69.4,29.65,South,180,2.5,3.6,60,0.00,,,0.00,WUHU216HW,2013-05-20 21:46:00,
2013-05-20 16:51:00,84.7,69.0,29.64,WSW,248,6.5,6.5,59,0.00,,,0.00,WUHU216HW,2013-05-20 21:51:00,
2013-05-20 16:56:00,84.8,68.6,29.64,WSW,248,2.2,6.5,58,0.00,,,0.00,WUHU216HW,2013-05-20 21:56:00,
2013-05-20 17:01:00,85.0,69.3,29.65,SSE,158,2.0,6.5,59,0.00,,,0.00,WUHU216HW,2013-05-20 22:01:00,
2013-05-20 17:06:00,85.4,68.7,29.64,SE,135,1.6,2.2,57,0.00,,,0.00,WUHU216HW,2013-05-20 22:06:00,
2013-05-20 17:11:00,85.6,69.4,29.64,SE,135,2.9,2.9,58,0.00,,,0.00,WUHU216HW,2013-05-20 22:11:00,
2013-05-20 17:16:00,85.9,69.1,29.64,SW,225,1.8,2.9,57,0.00,,,0.00,WUHU216HW,2013-05-20 22:16:00,
2013-05-20 17:21:00,86.5,67.5,29.64,WSW,248,4.7,4.7,53,0.00,,,0.00,WUHU216HW,2013-05-20 22:21:00,
2013-05-20 17:26:00,86.5,66.4,29.64,SW,225,6.3,6.3,51,0.00,,,0.00,WUHU216HW,2013-05-20 22:26:00,
2013-05-20 17:31:00,86.6,67.6,29.64,SSW,203,4.0,6.3,53,0.00,,,0.00,WUHU216HW,2013-05-20 22:31:00,
2013-05-20 17:36:00,87.0,68.6,29.64,SE,135,4.0,6.3,54,0.00,,,0.00,WUHU216HW,2013-05-20 22:36:00,
2013-05-20 17:41:00,87.4,67.8,29.63,SSW,203,2.9,5.6,52,0.00,,,0.00,WUHU216HW,2013-05-20 22:41:00,
2013-05-20 17:46:00,87.7,68.1,29.63,SW,225,2.5,5.6,52,0.00,,,0.00,WUHU216HW,2013-05-20 22:46:00,
2013-05-20 17:51:00,88.1,68.5,29.63,SSW,203,1.1,2.9,52,0.00,,,0.00,WUHU216HW,2013-05-20 22:51:00,
2013-05-20 17:56:00,88.1,67.3,29.63,SSW,203,2.0,2.5,50,0.00,,,0.00,WUHU216HW,2013-05-20 22:56:00,
2013-05-20 18:01:00,88.3,66.9,29.63,ENE,68,2.9,3.6,49,0.00,,,0.00,WUHU216HW,2013-05-20 23:01:00,
2013-05-20 18:06:00,88.3,66.9,29.63,WSW,248,2.2,3.6,49,0.00,,,0.00,WUHU216HW,2013-05-20 23:06:00,
2013-05-20 18:11:00,88.6,67.1,29.62,West,270,2.2,2.9,49,0.00,,,0.00,WUHU216HW,2013-05-20 23:11:00,
2013-05-20 18:16:00,89.0,67.5,29.62,SSW,203,0.2,2.2,49,0.00,,,0.00,WUHU216HW,2013-05-20 23:16:00,
2013-05-20 18:21:00,89.3,67.8,29.62,WSW,248,1.3,2.2,49,0.00,,,0.00,WUHU216HW,2013-05-20 23:21:00,
2013-05-20 18:26:00,89.5,67.4,29.63,SSE,158,6.9,6.9,48,0.00,,,0.00,WUHU216HW,2013-05-20 23:26:00,
2013-05-20 18:31:00,89.5,67.4,29.62,SW,225,2.7,6.9,48,0.00,,,0.00,WUHU216HW,2013-05-20 23:31:00,
2013-05-20 18:36:00,89.7,67.5,29.63,SSE,158,7.6,7.6,48,0.00,,,0.00,WUHU216HW,2013-05-20 23:36:00,
2013-05-20 18:41:00,89.7,68.2,29.62,SSW,203,3.1,7.6,49,0.00,,,0.00,WUHU216HW,2013-05-20 23:41:00,
2013-05-20 18:46:00,89.7,68.8,29.62,West,270,3.4,7.6,50,0.00,,,0.00,WUHU216HW,2013-05-20 23:46:00,
2013-05-20 18:51:00,89.7,68.8,29.61,South,180,4.9,4.9,50,0.00,,,0.00,WUHU216HW,2013-05-20 23:51:00,
2013-05-20 18:56:00,89.5,68.6,29.61,SW,225,2.9,4.9,50,0.00,,,0.00,WUHU216HW,2013-05-20 23:56:00,
2013-05-20 19:01:00,89.5,68.6,29.60,SW,225,4.7,4.9,50,0.00,,,0.00,WUHU216HW,2013-05-21 00:01:00,
2013-05-20 19:06:00,89.2,68.3,29.61,SW,225,1.8,4.7,50,0.00,,,0.00,WUHU216HW,2013-05-21 00:06:00,
2013-05-20 19:11:00,88.3,67.5,29.61,SSE,158,3.1,6.5,50,0.00,,,0.00,WUHU216HW,2013-05-21 00:11:00,
2013-05-20 19:16:00,87.7,67.5,29.62,ESE,113,3.1,6.5,51,0.00,,,0.00,WUHU216HW,2013-05-21 00:16:00,
2013-05-20 19:21:00,86.6,66.5,29.62,SSE,158,3.1,3.1,51,0.00,,,0.00,WUHU216HW,2013-05-21 00:21:00,
2013-05-20 19:26:00,85.2,66.3,29.62,SE,135,6.5,6.5,53,0.00,,,0.00,WUHU216HW,2013-05-21 00:26:00,
2013-05-20 19:31:00,84.3,66.0,29.62,South,180,2.5,6.5,54,0.00,,,0.00,WUHU216HW,2013-05-21 00:31:00,
2013-05-20 19:36:00,84.1,66.4,29.63,South,180,2.7,6.5,55,0.00,,,0.00,WUHU216HW,2013-05-21 00:36:00,
2013-05-20 19:41:00,83.8,66.1,29.63,WSW,248,4.5,4.5,55,0.00,,,0.00,WUHU216HW,2013-05-21 00:41:00,
2013-05-20 19:46:00,82.9,66.3,29.63,South,180,2.5,4.5,57,0.00,,,0.00,WUHU216HW,2013-05-21 00:46:00,
2013-05-20 19:51:00,82.3,65.8,29.63,SSW,203,5.1,5.1,57,0.00,,,0.00,WUHU216HW,2013-05-21 00:51:00,
2013-05-20 19:56:00,80.9,65.5,29.63,SW,225,3.8,5.1,59,0.00,,,0.00,WUHU216HW,2013-05-21 00:56:00,
2013-05-20 20:01:00,80.2,64.8,29.63,South,180,2.9,5.1,59,0.00,,,0.00,WUHU216HW,2013-05-21 01:01:00,
2013-05-20 20:06:00,79.4,64.0,29.63,SSE,158,3.6,3.8,59,0.00,,,0.00,WUHU216HW,2013-05-21 01:06:00,
2013-05-20 20:11:00,78.9,64.1,29.63,SSE,158,1.8,3.6,60,0.00,,,0.00,WUHU216HW,2013-05-21 01:11:00,
2013-05-20 20:16:00,78.2,64.3,29.63,WSW,248,2.5,3.6,62,0.00,,,0.00,WUHU216HW,2013-05-21 01:16:00,
2013-05-20 20:21:00,77.8,64.0,29.63,SE,135,3.1,3.1,62,0.00,,,0.00,WUHU216HW,2013-05-21 01:21:00,
2013-05-20 20:26:00,77.3,64.0,29.63,South,180,0.7,3.1,63,0.00,,,0.00,WUHU216HW,2013-05-21 01:26:00,
2013-05-20 20:31:00,76.2,63.4,29.63,SSE,158,1.6,3.1,64,0.00,,,0.00,WUHU216HW,2013-05-21 01:31:00,
2013-05-20 20:36:00,75.8,63.4,29.63,SW,225,1.1,1.6,65,0.00,,,0.00,WUHU216HW,2013-05-21 01:36:00,
2013-05-20 20:41:00,75.7,63.3,29.63,SSW,203,1.1,1.6,65,0.00,,,0.00,WUHU216HW,2013-05-21 01:41:00,
2013-05-20 20:46:00,74.9,63.0,29.63,South,180,0.7,1.1,66,0.00,,,0.00,WUHU216HW,2013-05-21 01:46:00,
2013-05-20 20:51:00,74.4,62.9,29.63,SW,225,0.7,1.1,67,0.00,,,0.00,WUHU216HW,2013-05-21 01:51:00,
2013-05-20 20:56:00,73.9,62.9,29.63,SW,225,0.2,1.1,68,0.00,,,0.00,WUHU216HW,2013-05-21 01:56:00,
2013-05-20 21:01:00,73.3,62.3,29.63,SW,225,3.4,3.4,68,0.00,,,0.00,WUHU216HW,2013-05-21 02:01:00,
2013-05-20 21:06:00,73.0,62.4,29.63,South,180,1.1,3.4,69,0.00,,,0.00,WUHU216HW,2013-05-21 02:06:00,
2013-05-20 21:11:00,72.8,62.2,29.64,WSW,248,1.6,3.4,69,0.00,,,0.00,WUHU216HW,2013-05-21 02:11:00,
2013-05-20 21:16:00,72.2,62.1,29.64,South,180,1.8,1.8,70,0.00,,,0.00,WUHU216HW,2013-05-21 02:16:00,
2013-05-20 21:21:00,72.2,62.5,29.64,WSW,248,0.2,1.8,71,0.00,,,0.00,WUHU216HW,2013-05-21 02:21:00,
2013-05-20 21:26:00,71.5,61.8,29.64,SSW,203,2.2,2.2,71,0.00,,,0.00,WUHU216HW,2013-05-21 02:26:00,
2013-05-20 21:31:00,71.2,61.9,29.65,SSE,158,1.1,2.2,72,0.00,,,0.00,WUHU216HW,2013-05-21 02:31:00,
2013-05-20 21:36:00,71.0,61.7,29.65,SE,135,1.1,2.2,72,0.00,,,0.00,WUHU216HW,2013-05-21 02:36:00,
2013-05-20 21:41:00,70.4,61.5,29.65,SSE,158,0.0,1.1,73,0.00,,,0.00,WUHU216HW,2013-05-21 02:41:00,
2013-05-20 21:46:00,70.3,61.8,29.65,South,180,1.3,1.3,74,0.00,,,0.00,WUHU216HW,2013-05-21 02:46:00,
2013-05-20 21:51:00,69.9,61.4,29.65,SW,225,0.9,1.3,74,0.00,,,0.00,WUHU216HW,2013-05-21 02:51:00,
2013-05-20 21:56:00,69.4,60.9,29.66,SSW,203,1.1,1.3,74,0.00,,,0.00,WUHU216HW,2013-05-21 02:56:00,
2013-05-20 22:01:00,69.0,60.1,29.66,SSE,158,0.4,1.1,73,0.00,,,0.00,WUHU216HW,2013-05-21 03:01:00,
2013-05-20 22:06:00,68.6,60.1,29.66,SSW,203,0.0,0.4,74,0.00,,,0.00,WUHU216HW,2013-05-21 03:06:00,
2013-05-20 22:11:00,68.3,59.8,29.66,South,180,2.2,2.2,74,0.00,,,0.00,WUHU216HW,2013-05-21 03:11:00,
2013-05-20 22:16:00,67.9,59.4,29.67,SSW,203,1.6,2.2,74,0.00,,,0.00,WUHU216HW,2013-05-21 03:16:00,
2013-05-20 22:21:00,67.6,59.9,29.67,South,180,3.4,3.4,76,0.00,,,0.00,WUHU216HW,2013-05-21 03:21:00,
2013-05-20 22:26:00,67.4,59.7,29.68,SSE,158,1.8,3.4,76,0.00,,,0.00,WUHU216HW,2013-05-21 03:26:00,
2013-05-20 22:31:00,67.2,59.9,29.68,SSE,158,1.1,3.4,77,0.00,,,0.00,WUHU216HW,2013-05-21 03:31:00,
2013-05-20 22:36:00,67.0,59.7,29.68,SSE,158,0.4,2.7,77,0.00,,,0.00,WUHU216HW,2013-05-21 03:36:00,
2013-05-20 22:41:00,66.8,59.5,29.68,SSW,203,0.7,1.1,77,0.00,,,0.00,WUHU216HW,2013-05-21 03:41:00,
2013-05-20 22:46:00,66.5,59.2,29.69,South,180,0.7,0.7,77,0.00,,,0.00,WUHU216HW,2013-05-21 03:46:00,
2013-05-20 22:51:00,66.1,58.8,29.69,South,180,0.7,0.9,77,0.00,,,0.00,WUHU216HW,2013-05-21 03:51:00,
2013-05-20 22:56:00,65.9,58.6,29.69,South,180,0.9,0.9,77,0.00,,,0.00,WUHU216HW,2013-05-21 03:56:00,
2013-05-20 23:01:00,65.8,58.8,29.69,South,180,0.4,0.9,78,0.00,,,0.00,WUHU216HW,2013-05-21 04:01:00,
2013-05-20 23:06:00,65.4,58.5,29.69,SSW,203,0.4,1.3,78,0.00,,,0.00,WUHU216HW,2013-05-21 04:06:00,
2013-05-20 23:11:00,65.4,58.8,29.68,SSW,203,0.0,1.3,79,0.00,,,0.00,WUHU216HW,2013-05-21 04:11:00,
2013-05-20 23:16:00,65.2,58.6,29.68,SW,225,0.0,0.4,79,0.00,,,0.00,WUHU216HW,2013-05-21 04:16:00,
2013-05-20 23:21:00,65.0,58.4,29.68,SE,135,0.9,0.9,79,0.00,,,0.00,WUHU216HW,2013-05-21 04:21:00,
2013-05-20 23:26:00,64.7,58.1,29.68,South,180,1.1,1.1,79,0.00,,,0.00,WUHU216HW,2013-05-21 04:26:00,
2013-05-20 23:31:00,64.7,58.5,29.68,South,180,1.6,1.6,80,0.00,,,0.00,WUHU216HW,2013-05-21 04:31:00,
2013-05-20 23:36:00,64.5,57.9,29.68,South,180,1.6,1.6,79,0.00,,,0.00,WUHU216HW,2013-05-21 04:36:00,
2013-05-20 23:41:00,64.3,57.7,29.68,SSE,158,0.4,1.6,79,0.00,,,0.00,WUHU216HW,2013-05-21 04:41:00,
2013-05-20 23:46:00,64.0,57.8,29.67,South,180,0.9,1.6,80,0.00,,,0.00,WUHU216HW,2013-05-21 04:46:00,
2013-05-20 23:51:00,63.8,57.6,29.67,South,180,1.8,1.8,80,0.00,,,0.00,WUHU216HW,2013-05-21 04:51:00,
2013-05-20 23:56:00,63.4,57.2,29.67,SW,225,0.0,2.2,80,0.00,,,0.00,WUHU216HW,2013-05-21 04:56:00,